Hourly Data Report for November 30, 2016

All times are specified in Local Standard Time (LST). Add 1 hour to adjust for Daylight Saving Time where and when it is observed.

VICTORIA UNIVERSITY CS
BRITISH COLUMBIA

48°27'25.200" N
123°18'16.600" W
60.10 m
1018598
71783
WYJ

Download Data

Hourly Data (November 2016)
Hourly Data Report for November 30, 2016
TIME Temp Definition
°C
Dew Point Definition
°C
Rel Hum Definition
%
Wind Dir Definition
10's deg

Wind Spd Definition
km/h
Visibility Definition
km
Stn Press Definition
kPa
Hmdx Definition


Wind Chill Definition


Weather Definition


00:00 8.6 5.1 79 13 6   100.07     LegendNANA
01:00 8.5 5.3 81 14 8   99.99     LegendNANA
02:00 7.9 5.4 84 14 8   100.03     LegendNANA
03:00 7.9 5.3 84 15 7   100.04     LegendNANA
04:00 8.1 5.3 83 15 9   100.00     LegendNANA
05:00 8.1 5.3 83 16 8   100.01     LegendNANA
06:00 7.6 5.3 86 19 7   100.08     LegendNANA
07:00 7.5 5.7 88 17 9   100.04     LegendNANA
08:00 7.4 6.0 91 19 12   100.08     LegendNANA
09:00 8.2 6.6 89 24 14   100.13     LegendNANA
10:00 8.5 5.3 80 25 15   100.26     LegendNANA
11:00 9.5 4.4 71 25 13   100.34     LegendNANA
12:00 10.5 5.0 69 26 11   100.47     LegendNANA
13:00 9.3 5.3 76 32 8   100.61     LegendNANA
14:00 8.3 5.1 80 31 4   100.71     LegendNANA
15:00 9.7 6.1 78 13 2   100.75     LegendNANA
16:00 9.1 4.8 74 25 7   100.81     LegendNANA
17:00 8.7 4.3 74 25 10   100.89     LegendNANA
18:00 7.4 4.1 80 25 8   100.97     LegendNANA
19:00 7.3 3.4 77 25 8   101.02     LegendNANA
20:00 7.5 2.9 73 26 10   101.07     LegendNANA
21:00 5.8 2.3 78 25 6   101.13     LegendNANA
22:00 4.8 1.2 77 25 4   101.17     LegendNANA
23:00 5.0 1.1 75 26 6   101.22     LegendNANA

Notes on Data Quality.

Legend

  • E = Estimated
  • M = Missing
  • NA = Not Available
Date modified: